Weather in Montevideo

Uruguay     34°51′33″S   56°11′52″W
temp.,
°C
wind,
m/s
gust,
m/s
humid.,
%
clouds,
%
prec.,
mm/h
press.,
hPa
HPBL,
m
9 august, tue
tue900:00+10ese2768100 0.0 1030260
03:00+9se367037 0.0 1030174
06:00+8se2377100 0.0 103078
09:00+10ese26789 0.0 1032316
12:00+13se45515 0.0 10321370
15:00+13se55505 0.0 10301350
18:00+10se35660 0.0 1031356
21:00+8se24800 0.0 1032135
10 august, wed
wed1000:00+7e23830 0.0 103172
03:00+6ene22890 0.0 103042
06:00+5ne22930 0.0 102943
09:00+7nne12800 0.0 1030125
12:00+13ne34495 0.0 1029813
15:00+15nne3446100 0.0 10261229
18:00+12ene2364100 0.0 102567
21:00+9ne2580100 0.0 1026145
11 august, thu
thu1100:00+8ne377981 0.0 1026192
03:00+7nne37870 0.0 1025172
06:00+6nne36890 0.0 1025147
09:00+7n37780 0.0 1026206
12:00+14nnw46570 0.0 1025805
15:00+17n56490 0.0 10221278
18:00+13n37670 0.0 1021203
21:00+10nne410820 0.0 1021251
12 august, fri
fri1200:00+9nne411885 0.0 1021265
03:00+8nne310905 0.0 1021236
06:00+8nne3109213 0.0 1020235
09:00+10nne41184100 0.0 1020310
12:00+16nne6863100 0.0 1018813
15:00+18n5756100 0.0 10161194
18:00+15n3776100 0.0 1015165
21:00+13nne3988100 0.0 1017206
13 august, sat
sat1300:00+12n310930 0.0 1017251
03:00+11n38960 0.1 1017164
06:00+11n35975 0.0 1017111
09:00+13nnw23882 0.0 1018113
12:00+19n22663 0.0 1018622
15:00+21nne23530 0.0 10161183
18:00+17ne22700 0.0 101626
21:00+14ene35855 0.0 1017120